Location: Ashtead
(51.3000°N, 0.3000°W)
Time: 15:43:48
(UTC+00:00)

CZ-2C R/B - Pass Details

Date: 05 May 2025
Orbit: 781 x 868 km, 98.4° (Epoch: 12 May)

Event Time Altitude Azimuth Distance (km) Brightness Sun altitude
Exits shadow 01:50:03 31° 225° (SW) 1,389 3.3 -18.1°
Maximum altitude 01:51:41 39° 263° (W) 1,204 3.2 -18.0°
Drops below altitude 10° 01:56:34 10° 332° (NNW) 2,374 5.5 -17.6°
Sets 01:59:03 0° 340° (NNW) 3,299 6.4 -17.4°
